EW8411 Weather Reports


time (UTC)temp
C
wind
direction
speed
KPH
gust
KPH
rain 1hr
cm
rain 24hr
cm
rain mn
cm
humidity
%
barometer
mb
20260506203712 18 0 4.8 12.9 0.00 0.00 0.00 71 1017.0
20260506202712 18 0 4.8 12.9 0.00 0.00 0.00 70 1017.1
20260506202212 18 0 4.8 9.7 0.00 0.00 0.00 72 1017.2
20260506201711 18 0 4.8 16.1 0.00 0.00 0.00 71 1017.2
20260506201211 18 0 4.8 16.1 0.00 0.00 0.00 70 1017.2
20260506200713 18 0 4.8 14.5 0.00 0.00 0.00 73 1017.3
20260506200217 17 0 6.4 12.9 0.00 0.00 0.00 74 1017.3
20260506200213 18 0 4.8 14.5 0.00 0.00 0.00 72 1017.3
20260506195212 18 0 6.4 12.9 0.00 0.00 0.00 72 1017.4
20260506194717 18 0 3.2 12.9 0.00 0.00 0.00 71 1017.4
20260506194713 18 0 4.8 12.9 0.00 0.00 0.00 71 1017.3
20260506193709 17 0 6.4 17.7 0.00 0.00 0.00 73 1017.4
20260506193209 17 0 6.4 17.7 0.00 0.00 0.00 71 1017.4
20260506192712 18 0 3.2 17.7 0.00 0.00 0.00 70 1017.4
20260506192211 18 0 3.2 6.4 0.00 0.00 0.00 70 1017.4
20260506191711 18 0 4.8 12.9 0.00 0.00 0.00 70 1017.4
20260506191212 17 0 4.8 16.1 0.00 0.00 0.00 70 1017.4
20260506190711 18 0 4.8 16.1 0.00 0.00 0.00 67 1017.4
20260506190210 18 0 3.2 9.7 0.00 0.00 0.00 67 1017.5
20260506185710 18 0 3.2 9.7 0.00 0.00 0.00 68 1017.6
20260506185210 18 0 4.8 12.9 0.00 0.00 0.00 69 1017.6
20260506184209 17 0 6.4 14.5 0.00 0.00 0.00 71 1017.7
20260506183710 17 0 6.4 16.1 0.00 0.00 0.00 69 1017.7
20260506183210 17 0 6.4 16.1 0.00 0.00 0.00 70 1017.8
20260506182711 17 0 4.8 14.5 0.00 0.00 0.00 71 1017.8
20260506182212 17 0 6.4 14.5 0.00 0.00 0.00 73 1017.9
20260506181710 16 0 8.0 17.7 0.00 0.00 0.00 75 1018.0
20260506181211 16 0 8.0 17.7 0.00 0.00 0.00 74 1018.0
20260506180711 17 0 6.4 16.1 0.00 0.00 0.00 73 1018.0
20260506180209 17 0 4.8 16.1 0.00 0.00 0.00 73 1017.9
20260506175716 17 0 6.4 14.5 0.00 0.00 0.00 73 1017.9
20260506175711 17 0 4.8 14.5 0.00 0.00 0.00 73 1017.9
20260506175329 16 0 6.4 14.5 0.00 0.00 0.00 73 1017.9
20260506174210 16 0 8.0 16.1 0.00 0.00 0.00 74 1017.9
20260506173710 16 0 8.0 16.1 0.00 0.00 0.00 75 1017.8
20260506173211 16 0 8.0 16.1 0.00 0.00 0.00 74 1017.7
20260506172709 16 0 6.4 17.7 0.00 0.00 0.00 74 1017.8
20260506172210 16 0 6.4 17.7 0.00 0.00 0.00 74 1017.7
20260506171710 16 0 4.8 14.5 0.00 0.00 0.00 74 1017.7
20260506171210 17 0 3.2 12.9 0.00 0.00 0.00 75 1017.8
20260506170710 17 0 4.8 12.9 0.00 0.00 0.00 75 1017.8
20260506170209 16 0 6.4 14.5 0.00 0.00 0.00 75 1017.7
20260506165710 16 0 8.0 16.1 0.00 0.00 0.00 74 1017.6
20260506165210 16 0 8.0 16.1 0.00 0.00 0.00 73 1017.7
20260506164713 17 0 4.8 9.7 0.00 0.00 0.00 72 1017.6
20260506164708 16 0 6.4 14.5 0.00 0.00 0.00 72 1017.6
20260506164325 17 0 6.4 12.9 0.00 0.00 0.00 72 1017.5
20260506163207 17 0 4.8 12.9 0.00 0.00 0.00 71 1017.5
20260506162703 17 0 4.8 12.9 0.00 0.00 0.00 70 1017.5
20260506162203 16 0 4.8 12.9 0.00 0.00 0.00 72 1017.5
20260506161705 16 0 4.8 12.9 0.00 0.00 0.00 72 1017.5
20260506161202 16 0 4.8 8.0 0.00 0.00 0.00 73 1017.5
20260506160701 16 0 4.8 8.0 0.00 0.00 0.00 73 1017.5
20260506160202 16 0 4.8 8.0 0.00 0.00 0.00 73 1017.5
20260506155659 16 0 4.8 9.7 0.00 0.00 0.00 74 1017.5
20260506155202 16 0 4.8 9.7 0.00 0.00 0.00 74 1017.5
20260506154659 16 0 4.8 8.0 0.00 0.00 0.00 74 1017.5
20260506154207 17 0 3.2 8.0 0.00 0.00 0.00 73 1017.4
20260506154202 16 0 3.2 8.0 0.00 0.00 0.00 74 1017.4
20260506153204 17 0 1.6 6.4 0.00 0.00 0.00 71 1017.4
20260506153159 17 0 3.2 6.4 0.00 0.00 0.00 73 1017.4
20260506152157 17 0 1.6 4.8 0.00 0.00 0.00 71 1017.4
20260506151659 17 0 0.0 3.2 0.00 0.00 0.00 71 1017.4
20260506151157 17 0 1.6 3.2 0.00 0.00 0.00 72 1017.3
20260506150655 17 0 0.0 3.2 0.00 0.00 0.00 72 1017.4
20260506150156 16 0 0.0 3.2 0.00 0.00 0.00 74 1017.5
20260506145655 16 0 0.0 3.2 0.00 0.00 0.00 75 1017.4
20260506145157 16 0 0.0 3.2 0.00 0.00 0.00 76 1017.4
20260506144655 15 0 0.0 3.2 0.00 0.00 0.00 77 1017.3
20260506144155 15 0 0.0 3.2 0.00 0.00 0.00 78 1017.3
20260506143656 14 0 0.0 3.2 0.00 0.00 0.00 80 1017.3
20260506143155 13 0 0.0 3.2 0.00 0.00 0.00 81 1017.3
20260506142655 13 0 0.0 3.2 0.00 0.00 0.00 82 1017.3
20260506142156 12 0 1.6 3.2 0.00 0.00 0.00 84 1017.2
20260506141653 12 0 1.6 3.2 0.00 0.00 0.00 85 1017.2
20260506141154 11 0 0.0 3.2 0.00 0.00 0.00 87 1017.2
20260506140655 11 0 0.0 1.6 0.00 0.00 0.00 88 1017.2
20260506140154 11 0 0.0 1.6 0.00 0.00 0.00 89 1017.1
20260506135655 10 0 0.0 1.6 0.00 0.00 0.00 90 1017.1
20260506135153 10 0 0.0 3.2 0.00 0.00 0.00 90 1017.0
20260506134653 10 0 0.0 3.2 0.00 0.00 0.00 90 1017.0
20260506134153 9 0 1.6 3.2 0.00 0.00 0.00 90 1016.9
20260506133700 9 0 0.0 3.2 0.00 0.00 0.00 90 1016.7
20260506133655 9 0 1.6 3.2 0.00 0.00 0.00 90 1016.9
20260506132651 9 0 0.0 3.2 0.00 0.00 0.00 90 1016.6
20260506132152 9 0 0.0 3.2 0.00 0.00 0.00 90 1016.6
20260506131651 9 0 0.0 1.6 0.00 0.00 0.00 90 1016.6
20260506131151 9 0 0.0 3.2 0.00 0.00 0.00 89 1016.6
20260506130657 9 0 1.6 3.2 0.00 0.00 0.00 90 1016.5
20260506130653 9 0 1.6 3.2 0.00 0.00 0.00 90 1016.6
20260506125651 9 0 1.6 3.2 0.00 0.00 0.00 90 1016.5
20260506125156 9 0 1.6 3.2 0.00 0.00 0.00 89 1016.3
20260506125151 9 0 1.6 3.2 0.00 0.00 0.00 90 1016.3
20260506124152 9 0 1.6 3.2 0.00 0.00 0.00 89 1016.3
20260506123649 9 0 1.6 3.2 0.00 0.00 0.00 89 1016.3
20260506123150 9 0 1.6 3.2 0.00 0.00 0.00 90 1016.3
20260506122649 9 0 1.6 3.2 0.00 0.00 0.00 89 1016.4
20260506122150 9 0 1.6 3.2 0.00 0.00 0.00 89 1016.4
20260506121647 9 0 1.6 3.2 0.00 0.00 0.00 89 1016.4
20260506121147 9 0 0.0 3.2 0.00 0.00 0.00 89 1016.2
20260506120653 9 0 0.0 3.2 0.00 0.00 0.00 88 1016.5
20260506120647 9 0 0.0 3.2 0.00 0.00 0.00 88 1016.2
20260506120306 9 0 0.0 3.2 0.00 0.00 0.00 88 1016.4
20260506115805 10 0 1.6 3.2 0.00 0.00 0.00 88 1016.3
20260506115307 10 0 1.6 3.2 0.00 0.00 0.00 88 1016.3
20260506114143 10 0 1.6 3.2 0.00 0.00 0.00 88 1016.3
20260506113642 10 0 0.0 3.2 0.00 0.00 0.00 89 1016.4
20260506113141 10 0 0.0 3.2 0.00 0.00 0.00 88 1016.4
20260506112639 10 0 0.0 3.2 0.00 0.00 0.00 88 1016.4
20260506112140 10 0 1.6 3.2 0.00 0.00 0.00 88 1016.4
20260506111638 10 0 1.6 3.2 0.00 0.00 0.00 88 1016.3
20260506111139 10 0 0.0 3.2 0.00 0.00 0.00 88 1016.2
20260506110640 10 0 0.0 3.2 0.00 0.00 0.00 88 1016.1
20260506110143 10 0 0.0 3.2 0.00 0.00 0.00 87 1016.2
20260506110138 10 0 1.6 3.2 0.00 0.00 0.00 87 1016.1
20260506105134 10 0 0.0 1.6 0.00 0.00 0.00 87 1016.2
20260506104634 10 0 0.0 3.2 0.00 0.00 0.00 87 1016.1
20260506104135 10 0 0.0 3.2 0.00 0.00 0.00 87 1016.1
20260506103635 10 0 1.6 3.2 0.00 0.00 0.00 87 1016.0
20260506103135 10 0 1.6 3.2 0.00 0.00 0.00 87 1016.1
20260506102636 10 0 0.0 3.2 0.00 0.00 0.00 87 1016.0
20260506102135 10 0 1.6 4.8 0.00 0.00 0.00 87 1015.9
20260506101637 10 0 1.6 4.8 0.00 0.00 0.00 86 1015.9
20260506101134 10 0 1.6 4.8 0.00 0.00 0.00 86 1015.9
20260506100640 11 0 1.6 4.8 0.00 0.00 0.00 86 1015.9
20260506100636 11 0 1.6 4.8 0.00 0.00 0.00 86 1015.9
20260506095635 11 0 1.6 3.2 0.00 0.00 0.00 86 1015.9
20260506095135 11 0 0.0 1.6 0.00 0.00 0.00 85 1015.9
20260506094635 11 0 1.6 3.2 0.00 0.00 0.00 85 1016.0
20260506094136 11 0 0.0 3.2 0.00 0.00 0.00 85 1016.0
20260506093636 11 0 1.6 3.2 0.00 0.00 0.00 85 1016.0
20260506093140 11 0 1.6 3.2 0.00 0.00 0.00 85 1015.9
20260506093136 11 0 1.6 3.2 0.00 0.00 0.00 85 1015.9
20260506092140 11 0 1.6 4.8 0.00 0.00 0.00 84 1015.8
20260506092135 11 0 1.6 3.2 0.00 0.00 0.00 84 1015.8
20260506091755 11 0 1.6 4.8 0.00 0.00 0.00 84 1015.9
20260506090636 11 0 1.6 3.2 0.00 0.00 0.00 84 1015.9
20260506090136 12 0 1.6 4.8 0.00 0.00 0.00 84 1015.8
20260506085637 12 0 1.6 4.8 0.00 0.00 0.00 84 1016.0
20260506085136 12 0 1.6 4.8 0.00 0.00 0.00 84 1016.0
20260506084636 11 0 1.6 3.2 0.00 0.00 0.00 83 1016.1
20260506084135 12 0 3.2 4.8 0.00 0.00 0.00 82 1016.2
20260506083640 12 0 1.6 4.8 0.00 0.00 0.00 82 1016.1
20260506083635 12 0 1.6 4.8 0.00 0.00 0.00 82 1016.2
20260506082634 12 0 1.6 4.8 0.00 0.00 0.00 82 1016.1
20260506082134 12 0 1.6 4.8 0.00 0.00 0.00 82 1016.1
20260506081640 12 0 0.0 8.0 0.00 0.00 0.00 81 1016.1
20260506081634 12 0 1.6 8.0 0.00 0.00 0.00 81 1016.1
20260506080637 12 0 0.0 3.2 0.00 0.00 0.00 81 1016.1
20260506080136 12 0 1.6 4.8 0.00 0.00 0.00 80 1016.1
20260506073134 13 0 0.0 3.2 0.00 0.00 0.00 78 1015.9
20260506072634 13 0 0.0 3.2 0.00 0.00 0.00 78 1015.8
20260506072132 13 0 1.6 4.8 0.00 0.00 0.00 78 1015.7
20260506071636 13 0 1.6 4.8 0.00 0.00 0.00 77 1015.7
20260506071632 13 0 0.0 3.2 0.00 0.00 0.00 76 1015.5
20260506070635 14 0 1.6 3.2 0.00 0.00 0.00 74 1015.4
20260506070631 14 0 0.0 3.2 0.00 0.00 0.00 75 1015.4
20260506062130 16 0 3.2 6.4 0.00 0.00 0.00 69 1015.0
20260506062126 16 0 3.2 6.4 0.00 0.00 0.00 69 1015.0
20260506061124 16 0 3.2 6.4 0.00 0.00 0.00 69 1014.9
20260506060625 16 0 4.8 14.5 0.00 0.00 0.00 68 1014.9
20260506060123 16 0 3.2 14.5 0.00 0.00 0.00 69 1014.9
20260506051120 16 0 0.0 3.2 0.00 0.00 0.00 68 1014.5
20260506050618 16 0 0.0 1.6 0.00 0.00 0.00 67 1014.4
20260506050119 16 0 1.6 4.8 0.00 0.00 0.00 67 1014.3
20260506045122 16 0 6.4 17.7 0.00 0.00 0.00 68 1014.3
20260506045116 16 0 6.4 17.7 0.00 0.00 0.00 67 1014.2
20260506044115 16 0 6.4 20.9 0.00 0.00 0.00 70 1014.3
20260506043616 15 0 3.2 20.9 0.00 0.00 0.00 72 1014.2
20260506043114 15 0 0.0 4.8 0.00 0.00 0.00 73 1014.1
20260506042618 15 0 1.6 3.2 0.00 0.00 0.00 73 1014.0
20260506042612 15 0 0.0 3.2 0.00 0.00 0.00 73 1014.0
20260506041613 15 0 0.0 3.2 0.00 0.00 0.00 73 1013.9
20260506041114 15 0 0.0 3.2 0.00 0.00 0.00 72 1013.8
20260506040615 15 0 1.6 3.2 0.00 0.00 0.00 71 1013.7
20260506040611 15 0 1.6 3.2 0.00 0.00 0.00 72 1013.8
20260506035612 15 0 1.6 3.2 0.00 0.00 0.00 70 1013.6
20260506035608 15 0 0.0 3.2 0.00 0.00 0.00 71 1013.7
20260506034606 16 0 1.6 4.8 0.00 0.00 0.00 70 1013.5
20260506034107 16 0 1.6 4.8 0.00 0.00 0.00 69 1013.4
20260506033607 16 0 0.0 3.2 0.00 0.00 0.00 69 1013.4
20260506033107 16 0 0.0 1.6 0.00 0.00 0.00 68 1013.3
20260506032606 16 0 0.0 1.6 0.00 0.00 0.00 68 1013.1
20260506032113 17 0 0.0 3.2 0.00 0.00 0.00 67 1013.0
20260506032108 16 0 1.6 3.2 0.00 0.00 0.00 67 1013.0
20260506031104 17 0 0.0 0.0 0.00 0.00 0.00 65 1012.8
20260506030605 17 0 0.0 3.2 0.00 0.00 0.00 65 1012.7
20260506030106 17 0 0.0 3.2 0.00 0.00 0.00 64 1012.7
20260506025606 17 0 0.0 1.6 0.00 0.00 0.00 64 1012.7
20260506025106 18 0 0.0 3.2 0.00 0.00 0.00 63 1012.7
20260506024605 18 0 1.6 4.8 0.00 0.00 0.00 63 1012.7
20260506024105 18 0 1.6 8.0 0.00 0.00 0.00 62 1012.6
20260506023602 18 0 1.6 8.0 0.00 0.00 0.00 62 1012.5
20260506023104 18 0 1.6 8.0 0.00 0.00 0.00 61 1012.4
20260506022602 18 0 1.6 4.8 0.00 0.00 0.00 62 1012.3
20260506022102 18 0 1.6 4.8 0.00 0.00 0.00 61 1012.3
20260506021602 19 0 3.2 6.4 0.00 0.00 0.00 60 1012.2
20260506021102 20 0 3.2 6.4 0.00 0.00 0.00 58 1012.2
20260506020603 20 0 1.6 6.4 0.00 0.00 0.00 54 1012.2
20260506020104 20 0 3.2 12.9 0.00 0.00 0.00 53 1012.1
20260506015602 21 0 4.8 12.9 0.00 0.00 0.00 52 1012.0
20260506015101 21 0 4.8 12.9 0.00 0.00 0.00 51 1011.9
20260506014559 21 0 4.8 8.0 0.00 0.00 0.00 49 1011.8
20260506014105 21 0 4.8 9.7 0.00 0.00 0.00 48 1011.8
20260506014101 21 0 4.8 9.7 0.00 0.00 0.00 49 1011.8
20260506013100 22 0 3.2 9.7 0.00 0.00 0.00 47 1011.7
20260506012600 22 0 3.2 8.0 0.00 0.00 0.00 47 1011.8
20260506012100 23 0 3.2 8.0 0.00 0.00 0.00 45 1011.7
20260506011601 23 0 1.6 6.4 0.00 0.00 0.00 44 1011.7
20260506011100 24 0 1.6 8.0 0.00 0.00 0.00 43 1011.6
20260506010559 24 0 3.2 9.7 0.00 0.00 0.00 43 1011.6
20260506010058 23 0 3.2 9.7 0.00 0.00 0.00 43 1011.7
20260506005558 23 0 1.6 8.0 0.00 0.00 0.00 43 1011.7
20260506005103 23 0 3.2 9.7 0.00 0.00 0.00 44 1011.7
20260506005057 23 0 3.2 8.0 0.00 0.00 0.00 44 1011.7
20260506004717 23 0 3.2 9.7 0.00 0.00 0.00 45 1011.7
20260506003559 23 0 3.2 9.7 0.00 0.00 0.00 43 1011.7
20260506003055 23 0 4.8 12.9 0.00 0.00 0.00 44 1011.6
20260506002557 23 0 3.2 12.9 0.00 0.00 0.00 45 1011.6
20260506002057 23 0 3.2 9.7 0.00 0.00 0.00 48 1011.5
20260506001555 22 0 4.8 16.1 0.00 0.00 0.00 55 1011.4
20260506001055 21 0 6.4 16.1 0.00 0.00 0.00 53 1011.4
20260506000553 21 0 8.0 16.1 0.00 0.00 0.00 55 1011.4
20260506000052 21 0 8.0 19.3 0.00 0.00 0.00 54 1011.5
20260505235553 22 0 6.4 19.3 0.00 0.00 0.00 52 1011.5
20260505235052 22 0 4.8 12.9 0.00 0.00 0.00 46 1011.4
20260505234052 21 0 4.8 19.3 0.00 0.00 0.00 55 1011.3
20260505233558 20 0 6.4 19.3 0.00 0.00 0.00 55 1011.5
20260505233552 20 0 8.0 19.3 0.00 0.00 0.00 56 1011.5
20260505232553 21 0 6.4 16.1 0.00 0.00 0.00 54 1011.6
20260505232052 21 0 4.8 16.1 0.00 0.00 0.00 51 1011.5
20260505231552 22 0 3.2 16.1 0.00 0.00 0.00 49 1011.5
20260505231052 22 0 4.8 12.9 0.00 0.00 0.00 48 1011.6
20260505230552 22 0 4.8 12.9 0.00 0.00 0.00 48 1011.6
20260505230052 21 0 4.8 16.1 0.00 0.00 0.00 51 1011.5
20260505225553 21 0 8.0 19.3 0.00 0.00 0.00 54 1011.5
20260505225052 21 0 9.7 19.3 0.00 0.00 0.00 56 1011.6
20260505224556 21 0 9.7 22.5 0.00 0.00 0.00 56 1011.8
20260505224551 21 0 8.0 22.5 0.00 0.00 0.00 54 1011.9
20260505224208 21 0 4.8 14.5 0.00 0.00 0.00 52 1011.9
20260505223050 21 0 4.8 16.1 0.00 0.00 0.00 52 1011.9
20260505222549 22 0 4.8 16.1 0.00 0.00 0.00 50 1012.0
20260505222050 22 0 4.8 14.5 0.00 0.00 0.00 49 1012.0
20260505221550 21 0 4.8 14.5 0.00 0.00 0.00 51 1012.0
20260505221055 20 0 6.4 16.1 0.00 0.00 0.00 57 1012.0
20260505221050 21 0 4.8 14.5 0.00 0.00 0.00 54 1012.1
20260505220050 20 0 6.4 17.7 0.00 0.00 0.00 58 1012.1
20260505215555 20 0 4.8 12.9 0.00 0.00 0.00 59 1012.3
20260505215550 20 0 6.4 17.7 0.00 0.00 0.00 58 1012.2
20260505214550 20 0 4.8 12.9 0.00 0.00 0.00 61 1012.3
20260505214048 20 0 4.8 9.7 0.00 0.00 0.00 61 1012.4
20260505213547 19 0 4.8 16.1 0.00 0.00 0.00 61 1012.5
20260505213047 19 0 6.4 19.3 0.00 0.00 0.00 60 1012.5
20260505212548 19 0 8.0 19.3 0.00 0.00 0.00 60 1012.5
20260505212049 20 0 8.0 20.9 0.00 0.00 0.00 59 1012.6
20260505211548 20 0 8.0 20.9 0.00 0.00 0.00 57 1012.5
20260505211049 21 0 11.3 24.1 0.00 0.00 0.00 57 1012.5
20260505210548 21 0 14.5 29.0 0.00 0.00 0.00 57 1012.3
20260505210049 21 0 12.9 29.0 0.00 0.00 0.00 56 1012.3
20260505205549 21 0 14.5 32.2 0.00 0.00 0.00 57 1012.4
20260505205053 20 0 12.9 24.1 0.00 0.00 0.00 58 1012.3
20260505205048 20 0 14.5 32.2 0.00 0.00 0.00 59 1012.4
20260505204048 19 0 9.7 22.5 0.00 0.00 0.00 61 1012.4